OBJECT V, 52751

Orbit data source: Space-Track

You're viewing an Uncataloged Satellite

Recently launched and/or uncataloged satellites may have evolving metadata. Metadata may include but not limited to: Owner, Maufacturer, Bus, Motor, and Mission.

OBJECT V, 52751 is a satellite in SSO that was launched on Wed, 25 May 2022 UTC via an FALCON 9 launch vehicle from the Air Force Eastern Test Range (AFETR). Unknown objects in Earth's orbit typically refer to objects detected orbiting the Earth but have not yet been identified or cataloged. These objects could be anything from previously untracked satellites, spent rocket stages, debris from satellite collisions, or even natural meteoroids temporarily captured by Earth's gravity.

Loading next visibility...
Identifier
52751, 2022-057V
Orbit
SSO
Country
Flag of TBDTBD
Related business
None
Manufacturer
Unknown
Mission
Non-operational Commercial Technology
Bus & Motor
Unknown
Mass
Unknown
Launch date (UTC)
2022-05-25 (4 years ago)
Launch vehicle
FALCON 9
Launch site
Air Force Eastern Test Range (AFETR)
Object type
Unknown
Shape & HBR
Box, 0.1 m
Radar Cross Section
0.015 m², Small (<0.1 m²)

Expand to show TLE details & history
Last TLE update: 15 hours ago

TLE from 15 hours ago
0 OBJECT V
1 52751U 22057V   25349.97248838  .00007977  00000-0  24561-3 0  9999
2 52751  97.6361 126.1079 0007175  38.4373 321.7379 15.33903303197580
Epoch: 2025-12-15T23:20Z
TLE epoch observation values (Epoch: 2025-12-15T23:20:22.996Z)
Latitude
0.00001°
Longitude
51.1487°
Altitude
463.428 km
Speed
7.637 km/s
True Right ascension
08h 24m 25s
True Declination
0° 00' 00"
Sunlit
Object was in full shadow at epoch
Visualization orbit readout
Latitude
Unknown
Longitude
Unknown
Altitude
Unknown
Speed
Unknown
Apparent Right ascension
Unknown
Apparent Declination
Unknown
Sunlit
N/A
Visualization observer readout
Local Sidereal Time
12:47:34
Azimuth
Unknown
Elevation
Unknown
Doppler factor
Unknown
Orbital elements
Apogee altitude
466.044 km
Perigee altitude
456.23 km
Semi-major axis
6,839.274 km
Eccentricity
0.00072
Inclination
97.6361°
RAAN
126.1079°
Arg. of periapsis
38.4373°
True anomaly
321.68695°
Mean anomaly
321.7379°
Eccentric anomaly
321.71243°
Mean motion
3.83732 °/min
Orbital period
93.82 mins
BSTAR
0.00024561

Documentation

Showing up to 5 results
|